User: anonymous   Login
Location: Melbourne
(37.8170°S, 144.9670°E)
Time: 07:02:48
(UTC+10:00)
Language:

Aureole 2 Rocket - Orbit

View from above orbital plane
View from above orbital plane
View from above satellite
View from above satellite

Ground track
Ground track

The orbit data is extracted from the following two-line orbital elements,

1 07004U 73107B   15111.15417947  .00027554  00000-0  61332-3 0  9997
2 07004 073.9424 308.2697 0252366 016.9374 123.8845 15.16380614116791
Epoch (UTC): 21 April 2015 03:42:01
Eccentricity: 0.0252366
inclination: 73.9424°
perigee height: 343 km
apogee height: 691 km
right ascension of ascending node: 308.2697°
argument of perigee: 16.9374°
revolutions per day: 15.16380614
mean anomaly at epoch: 123.8845°
orbit number at epoch: 11679

The dashed part of the orbit path shows where the satellite is in the earth's shadow,  

DLR